Niagara Falls, NY

7:32 AM EDT on March 24, 2017 (GMT -0400)
Niagara Falls International

Weather History for KIAG - August, 2013

Change the Weather History Date:

Saturday, August 31, 2013

  Actual Average Record
Temperature  
Mean Temperature 74 °F -  
Max Temperature 79 °F 75 °F 90 °F (2010)
Min Temperature 69 °F 56 °F 35 °F (1997)
Cooling Degree Days 8    
Growing Degree Days 24 (Base 50)    
Moisture  
Dew Point 68 °F    
Average Humidity 84    
Maximum Humidity 94    
Minimum Humidity 68    
Precipitation  
Precipitation 0.01 in - - ()
Sea Level Pressure  
Sea Level Pressure 29.76 in    
Wind  
Wind Speed 10 mph (WNW)    
Max Wind Speed 17 mph    
Max Gust Speed 24 mph    
Visibility 8 miles    
Events Thunderstorm    
Averages and records for this station are not official NWS values.
T = Trace of Precipitation, MM = Missing Value Source: NWS Daily Summary

Daily Weather History Graph

Daily Weather History Graph

Search for Another Location

Airport or City:

Trip Planner

Search our weather history database for the weather conditions in past years. The results will help you decide how hot, cold, wet, or windy it might be!

Date:

Astronomy

Aug. 31, 2013 Rise Set
Actual Time 6:39 AM EDT 7:51 PM EDT
Civil Twilight 6:09 AM EDT 8:21 PM EDT
Nautical Twilight 5:34 AM EDT 8:56 PM EDT
Astronomical Twilight 4:57 AM EDT 9:33 PM EDT
Moon 2:02 AM EDT (8/31) 4:53 PM EDT (8/31)
Length of Visible Light 14h 11m
Length of Day
13h 12m
Waning Crescent, 21% of the Moon is Illuminated
Aug 31
Waning Crescent
Sep 5
New
Sep 12
First Quarter
Sep 19
Full
Sep 26
Last Quarter

Hourly Weather History & Observations

Time (EDT) Temp. Dew Point Humidity Pressure Visibility Wind Dir Wind Speed Gust Speed Precip Events Conditions
12:12 AM 73.4 °F 68.0 °F 83% 29.74 in 9.0 mi WSW 17.3 mph 24.2 mph N/A Thunderstorm Scattered Clouds
12:50 AM 71.6 °F 66.2 °F 83% 29.75 in 10.0 mi SSW 13.8 mph - 0.01 in   Scattered Clouds
12:53 AM 72.0 °F 66.9 °F 84% 29.73 in 10.0 mi SW 12.7 mph - 0.01 in   Scattered Clouds
1:53 AM 73.0 °F 68.0 °F 84% 29.72 in 10.0 mi SSW 16.1 mph - N/A   Mostly Cloudy
2:53 AM 73.0 °F 68.0 °F 84% 29.70 in 9.0 mi SW 10.4 mph - N/A   Scattered Clouds
3:26 AM 71.6 °F 68.0 °F 88% 29.72 in 9.0 mi SW 10.4 mph - N/A   Mostly Cloudy
3:43 AM 73.4 °F 68.0 °F 83% 29.72 in 10.0 mi WSW 10.4 mph - N/A   Mostly Cloudy
3:53 AM 72.0 °F 68.0 °F 87% 29.71 in 10.0 mi WSW 11.5 mph - N/A   Partly Cloudy
4:46 AM 73.4 °F 69.8 °F 88% 29.73 in 8.0 mi WSW 6.9 mph - N/A   Overcast
4:53 AM 72.0 °F 69.1 °F 91% 29.70 in 8.0 mi West 6.9 mph - N/A   Overcast
5:09 AM 71.6 °F 68.0 °F 88% 29.72 in 7.0 mi West 5.8 mph - N/A   Mostly Cloudy
5:29 AM 71.6 °F 69.8 °F 94% 29.73 in 7.0 mi WSW 5.8 mph - N/A   Mostly Cloudy
5:53 AM 71.1 °F 69.1 °F 93% 29.72 in 6.0 mi West 4.6 mph - N/A   Overcast
6:13 AM 71.6 °F 69.8 °F 94% 29.74 in 6.0 mi West 3.5 mph - N/A   Overcast
6:53 AM 70.0 °F 68.0 °F 93% 29.74 in 6.0 mi West 5.8 mph - N/A   Overcast
6:59 AM 69.8 °F 66.2 °F 88% 29.75 in 6.0 mi West 5.8 mph - N/A   Mostly Cloudy
7:53 AM 70.0 °F 66.9 °F 90% 29.75 in 7.0 mi West 6.9 mph - N/A   Scattered Clouds
8:53 AM 72.0 °F 66.9 °F 84% 29.76 in 9.0 mi WNW 4.6 mph - N/A   Scattered Clouds
9:53 AM 73.9 °F 68.0 °F 82% 29.77 in 10.0 mi NW 6.9 mph - N/A   Scattered Clouds
10:40 AM 75.2 °F 68.0 °F 78% 29.80 in 9.0 mi NW 11.5 mph - N/A   Mostly Cloudy
10:53 AM 75.0 °F 68.0 °F 79% 29.80 in 9.0 mi NW 11.5 mph - N/A   Mostly Cloudy
11:04 AM 75.2 °F 68.0 °F 78% 29.81 in 9.0 mi NW 10.4 mph - N/A   Mostly Cloudy
11:53 AM 77.0 °F 68.0 °F 74% 29.78 in 10.0 mi NNW 11.5 mph - N/A   Scattered Clouds
12:53 PM 78.1 °F 68.0 °F 71% 29.78 in 10.0 mi WNW 8.1 mph - N/A   Scattered Clouds
1:53 PM 78.1 °F 66.9 °F 68% 29.78 in 10.0 mi WNW 9.2 mph - N/A   Mostly Cloudy
2:53 PM 78.1 °F 66.9 °F 68% 29.78 in 10.0 mi NNW 11.5 mph - N/A   Mostly Cloudy
3:53 PM 78.1 °F 68.0 °F 71% 29.77 in 10.0 mi North 9.2 mph - N/A   Mostly Cloudy
4:53 PM 75.9 °F 68.0 °F 76% 29.77 in 8.0 mi North 8.1 mph - N/A   Mostly Cloudy
5:53 PM 73.9 °F 68.0 °F 82% 29.79 in 8.0 mi North 8.1 mph - N/A   Mostly Cloudy
6:53 PM 73.0 °F 66.9 °F 81% 29.79 in 8.0 mi NNE 6.9 mph - N/A   Mostly Cloudy
7:53 PM 70.0 °F 66.0 °F 87% 29.80 in 10.0 mi ENE 6.9 mph - N/A   Mostly Cloudy
8:53 PM 69.1 °F 66.0 °F 90% 29.82 in 8.0 mi Calm Calm - N/A   Mostly Cloudy
9:53 PM 69.1 °F 66.0 °F 90% 29.84 in 7.0 mi ESE 4.6 mph - N/A   Mostly Cloudy
10:53 PM 69.1 °F 66.0 °F 90% 29.84 in 7.0 mi East 4.6 mph - N/A   Mostly Cloudy
11:53 PM 69.1 °F 66.0 °F 90% 29.83 in 9.0 mi East 3.5 mph - N/A   Mostly Cloudy